{"data":{"norad_id":67398,"intl_designator":"2026-004AM","name":"TOMORROW-S10","alt_names":[],"object_type":"PAYLOAD","status":"ACTIVE","operator":null,"country":"US","launch_date":"2026-01-11","launch_site_code":"AFWTR","launch_vehicle":null,"mission":null,"orbit_class":"UNKNOWN","rcs_meters":null,"size_class":null,"mass_kg":null,"dimensions":null,"purposes":[],"wikipedia_slug":null,"has_3d_model":false,"image_url":null,"decayed_at":null,"tle_current":{"epoch":"2026-05-24T22:27:37.935936Z","epoch_age_seconds":91034,"freshness":"FRESH","line1":"1 67398U 26004AM  26144.93585574  .00003680  00000+0  17937-3 0  9994","line2":"2 67398  97.4560 144.4452 0008540  74.5494 285.6684 15.18931079 20230","mean_motion":15.18931079,"eccentricity":0.000854,"inclination_deg":97.456,"raan_deg":144.4452,"arg_perigee_deg":74.5494,"mean_anomaly_deg":285.6684,"bstar":0.00017937,"rev_number":2023,"period_min":94.803511489674,"perigee_km":503.18821239426,"apogee_km":514.95156175738,"semimajor_km":6887.2068870758,"source":"CELESTRAK","updated_at":"2026-05-25T13:38:06.961695Z"}}}